Regional Weather Roundup
Issued by NWS

Home | Current Version | Previous Version | Text Only | Print | Product List | Glossary On
Versions: 1 2 3 4 5 6 7 8 9 10 11 12 13 14 15 16 17 18 19 20 21 22 23 24 25 26 27 28 29 30 31 32 33 34 35 36 37 38 39 40 41 42 43 44 45 46 47 48 49 50
000
ASUS45 KABQ 251410
RWRNM
NEW MEXICO REGIONAL WEATHER ROUNDUP
NATIONAL WEATHER SERVICE ALBUQUERQUE NM
800 AM MDT MON SEP 25 2017

NOTE: "FAIR" MEANS FEW OR NO CLOUDS BELOW 12,000 FEET AGL WITH NO
       SIGNIFICANT WEATHER OR OBSTRUCTIONS TO VISION.

      THIS PRODUCT IS RELEASED AS TWO VERSIONS.  ONE VERSION NEAR
      THE TOP OF THE HOUR CONTAINING PRELIMINARY DATA FROM ALBUQUERQUE
      AND OTHER STATIONS.  A FINAL VERSION WITH ADDITIONAL DATA IS
      ISSUED ABOUT 10 MINUTES AFTER THE HOUR.

NMZ501-503-504-510>518-251500-
NORTHWEST PLATEAU/NORTHCENTRAL MOUNTAINS

CITY           SKY/WX    TMP DP  RH WIND       PRES   REMARKS
FARMINGTON     FAIR      32  17  54 NE3       30.06R
LOS ALAMOS     FAIR      46  23  39 NW3       30.06F
SANTA FE       FAIR      47  29  49 N13       30.01R
TAOS           FAIR      39  32  76 N5        30.09S
ANGEL FIRE     FAIR      28  26  92 CALM      30.13S

$$
NMZ402-403-502-505>509-251500-
WESTCENTRAL MOUNTAINS/SOUTHWEST MOUNTAINS

CITY           SKY/WX    TMP DP  RH WIND       PRES   REMARKS
GALLUP         FAIR      32  11  41 CALM      30.09R
GRANTS         FAIR      37  15  41 N8        30.09R WCI  30
SILVER CITY    FAIR      53  31  42 NW9       29.97R

$$
NMZ407-409-411-412-251500-
SOUTHERN DESERTS

CITY           SKY/WX    TMP DP  RH WIND       PRES   REMARKS
DEMING         FAIR      53  32  44 CALM      29.93R
LAS CRUCES     FAIR      63  25  23 N3        29.92R
HOLLOMAN AFB   PTSUNNY   62  49  60 N6        29.91R
ALAMOGORDO     PTSUNNY   64  50  59 N6        29.91R
T OR C         PTSUNNY   58  23  26 NW6       29.95R

$$
NMZ519>523-251500-
CENTRAL VALLEYS/CENTRAL HIGHLANDS

CITY           SKY/WX    TMP DP  RH WIND       PRES   REMARKS
ALBUQUERQUE    FAIR      52  23  32 NE5       30.01R
DOUBLE EAGLE   MOSUNNY   50  21  32 NW10      30.02S
MORIARTY ARPT  CLOUDY    47  35  61 CALM      30.04R
CLINES CORNERS PTSUNNY   50  24  36 NW6       30.04R
BELEN          FAIR      51  15  24 N6        30.01R
SOCORRO        FAIR      53  19  26 N6        29.98R

$$
NMZ524>526-539-540-251500-
SOUTHCENTRAL MOUNTAINS

CITY           SKY/WX    TMP DP  RH WIND       PRES   REMARKS
RUIDOSO        FAIR      54  45  71 N3        30.04S

$$
NMZ527>531-251500-
NORTHEAST HIGHLANDS/NORTHEAST PLAINS

CITY           SKY/WX    TMP DP  RH WIND       PRES   REMARKS
LAS VEGAS      LGT RAIN  43  39  86 E8        30.04R
RATON          NOT AVBL
CLAYTON        CLOUDY    54  54 100 N15       30.01R

$$
NMZ532>537-251500-
EASTCENTRAL PLAINS

CITY           SKY/WX    TMP DP  RH WIND       PRES   REMARKS
SANTA ROSA     CLOUDY    63  61  94 S5        29.93R
TUCUMCARI      CLOUDY    64  62  93 E6        29.89F THUNDER
CANNON AFB     CLOUDY    66  66 100 S9        29.93S
CLOVIS AIRPORT LGT RAIN  65  64  97 S10       29.93S FOG

$$
NMZ028-029-538-251500-
SOUTHEAST PLAINS

CITY           SKY/WX    TMP DP  RH WIND       PRES   REMARKS
ROSWELL        FAIR      65  55  70 S8        29.87R
ARTESIA        FAIR      61  61 100 SW9G16    29.88R
CARLSBAD       CLOUDY    58  58 100 NW6       29.89R THUNDER
HOBBS          TSTM      57  55  94 NW9G22    29.94R VSB 3/4


$$



USA.gov is the U.S. government's official web portal to all federal, state and local government web resources and services.